When you browse on this site, cookies collect data to enhance your experience and personalize the content and advertising you see.
Visit our Privacy Policy to learn more. By continuing to use the site, you agree to this use of cookies and data.

Stündliche Wetter Szklarnia

Heute, 9 Juli, Donnerstag

Zeit Temperatur Niederschläge Wind Luftdruck Luftfeuchtigkeit
00:00 +9°C° 0 mm 2 m/S 747 mmHg 93%
01:00 +9°C° 0 mm 2 m/S 748 mmHg 94%
02:00 +9°C° 0 mm 2 m/S 748 mmHg 94%
03:00 +8°C° 0 mm 2 m/S 748 mmHg 93%
04:00 +8°C° 0 mm 2 m/S 747 mmHg 93%
05:00 +10°C° 0 mm 2 m/S 748 mmHg 87%
06:00 +12°C° 0 mm 3 m/S 748 mmHg 82%
07:00 +13°C° 0 mm 3 m/S 749 mmHg 75%
08:00 +14°C° 0 mm 3 m/S 749 mmHg 70%
09:00 +17°C° 0 mm 3 m/S 749 mmHg 66%
10:00 +18°C° 0 mm 4 m/S 749 mmHg 61%
11:00 +19°C° 0.2 mm 4 m/S 749 mmHg 60%
12:00 +19°C° 0.2 mm 3 m/S 749 mmHg 58%
13:00 +20°C° 0.2 mm 3 m/S 749 mmHg 57%
14:00 +20°C° 0.4 mm 3 m/S 748 mmHg 62%
15:00 +19°C° 0.4 mm 3 m/S 748 mmHg 67%
16:00 +19°C° 0.4 mm 3 m/S 748 mmHg 73%
17:00 +18°C° 0.3 mm 3 m/S 747 mmHg 77%
18:00 +17°C° 0.3 mm 3 m/S 747 mmHg 81%
19:00 +16°C° 0.3 mm 3 m/S 746 mmHg 85%
20:00 +16°C° 0.4 mm 3 m/S 746 mmHg 89%
21:00 +14°C° 0.4 mm 3 m/S 746 mmHg 92%
22:00 +14°C° 0.4 mm 3 m/S 745 mmHg 96%
23:00 +14°C° 0.5 mm 3 m/S 745 mmHg 96%

Morgen, 10 Juli, Freitag

Zeit Temperatur Niederschläge Wind Luftdruck Luftfeuchtigkeit
00:00 +14°C° 0.5 mm 4 m/S 744 mmHg 95%
01:00 +15°C° 0.5 mm 5 m/S 744 mmHg 95%
02:00 +15°C° 0.3 mm 5 m/S 743 mmHg 95%
03:00 +15°C° 0.3 mm 5 m/S 743 mmHg 96%
04:00 +15°C° 0.3 mm 5 m/S 743 mmHg 96%
05:00 +16°C° 0 mm 5 m/S 743 mmHg 94%
06:00 +16°C° 0 mm 5 m/S 743 mmHg 93%
07:00 +16°C° 0 mm 5 m/S 743 mmHg 91%
08:00 +17°C° 0 mm 5 m/S 744 mmHg 86%
09:00 +19°C° 0 mm 5 m/S 744 mmHg 81%
10:00 +20°C° 0 mm 5 m/S 744 mmHg 76%
11:00 +21°C° 0.1 mm 5 m/S 744 mmHg 74%
12:00 +21°C° 0.1 mm 4 m/S 744 mmHg 71%
13:00 +22°C° 0.1 mm 4 m/S 744 mmHg 69%
14:00 +22°C° 0.1 mm 3 m/S 744 mmHg 71%
15:00 +21°C° 0.1 mm 3 m/S 744 mmHg 74%
16:00 +21°C° 0.1 mm 2 m/S 744 mmHg 77%
17:00 +21°C° 0.4 mm 2 m/S 743 mmHg 81%
18:00 +20°C° 0.4 mm 2 m/S 743 mmHg 85%
19:00 +20°C° 0.4 mm 2 m/S 742 mmHg 89%
20:00 +19°C° 0.6 mm 3 m/S 743 mmHg 91%
21:00 +19°C° 0.6 mm 3 m/S 743 mmHg 93%
22:00 +19°C° 0.6 mm 4 m/S 743 mmHg 95%
23:00 +18°C° 0.1 mm 4 m/S 743 mmHg 95%

übermorgen, 11 Juli, Samstag

Zeit Temperatur Niederschläge Wind Luftdruck Luftfeuchtigkeit
00:00 +18°C° 0.1 mm 4 m/S 744 mmHg 96%
01:00 +17°C° 0.1 mm 4 m/S 744 mmHg 96%
02:00 +15°C° 0 mm 4 m/S 745 mmHg 96%
03:00 +14°C° 0 mm 4 m/S 746 mmHg 96%
04:00 +13°C° 0 mm 3 m/S 747 mmHg 96%
05:00 +14°C° 0 mm 3 m/S 747 mmHg 92%
06:00 +14°C° 0 mm 3 m/S 748 mmHg 89%
07:00 +14°C° 0 mm 3 m/S 748 mmHg 85%
08:00 +16°C° 0 mm 3 m/S 749 mmHg 79%
09:00 +17°C° 0 mm 3 m/S 749 mmHg 74%
10:00 +18°C° 0 mm 3 m/S 750 mmHg 68%
11:00 +18°C° 0.1 mm 3 m/S 750 mmHg 67%
12:00 +18°C° 0.1 mm 3 m/S 751 mmHg 67%
13:00 +18°C° 0.1 mm 2 m/S 751 mmHg 66%
14:00 +18°C° 0.1 mm 2 m/S 751 mmHg 66%
15:00 +17°C° 0.1 mm 2 m/S 751 mmHg 66%
16:00 +17°C° 0.1 mm 2 m/S 751 mmHg 66%
17:00 +17°C° 0.1 mm 2 m/S 751 mmHg 71%
18:00 +16°C° 0.1 mm 2 m/S 751 mmHg 77%
19:00 +15°C° 0.1 mm 1 m/S 751 mmHg 82%
20:00 +15°C° 0.1 mm 1 m/S 752 mmHg 85%
21:00 +14°C° 0.1 mm 1 m/S 752 mmHg 87%
22:00 +13°C° 0.1 mm 1 m/S 752 mmHg 90%
23:00 +12°C° 0 mm 1 m/S 752 mmHg 91%

12 Juli, Sonntag

Zeit Temperatur Niederschläge Wind Luftdruck Luftfeuchtigkeit
00:00 +12°C° 0 mm 1 m/S 752 mmHg 92%
01:00 +11°C° 0 mm 1 m/S 752 mmHg 93%
02:00 +11°C° 0 mm 1 m/S 752 mmHg 93%
03:00 +11°C° 0 mm 1 m/S 752 mmHg 92%
04:00 +10°C° 0 mm 2 m/S 752 mmHg 92%
05:00 +12°C° 0 mm 2 m/S 752 mmHg 87%
06:00 +13°C° 0 mm 2 m/S 752 mmHg 83%
07:00 +14°C° 0 mm 2 m/S 752 mmHg 79%
08:00 +14°C° 0 mm 3 m/S 752 mmHg 73%
09:00 +16°C° 0 mm 3 m/S 752 mmHg 67%
10:00 +18°C° 0 mm 3 m/S 752 mmHg 61%
11:00 +18°C° 0.1 mm 3 m/S 752 mmHg 61%
12:00 +18°C° 0.1 mm 4 m/S 752 mmHg 61%
13:00 +18°C° 0.1 mm 4 m/S 752 mmHg 62%
14:00 +18°C° 0.1 mm 3 m/S 752 mmHg 64%
15:00 +17°C° 0.1 mm 3 m/S 752 mmHg 65%
16:00 +17°C° 0.1 mm 3 m/S 752 mmHg 67%
17:00 +16°C° 0 mm 3 m/S 752 mmHg 71%
18:00 +15°C° 0 mm 2 m/S 752 mmHg 76%
19:00 +15°C° 0 mm 2 m/S 752 mmHg 80%
20:00 +14°C° 0 mm 2 m/S 752 mmHg 82%
21:00 +13°C° 0 mm 2 m/S 752 mmHg 85%
22:00 +12°C° 0 mm 2 m/S 752 mmHg 88%
23:00 +12°C° 0 mm 1 m/S 752 mmHg 87%

13 Juli, Montag

Zeit Temperatur Niederschläge Wind Luftdruck Luftfeuchtigkeit
00:00 +12°C° 0 mm 1 m/S 752 mmHg 87%
01:00 +12°C° 0 mm 1 m/S 751 mmHg 87%
02:00 +10°C° 0 mm 2 m/S 751 mmHg 89%
03:00 +10°C° 0 mm 2 m/S 751 mmHg 91%
04:00 +9°C° 0 mm 2 m/S 751 mmHg 93%
05:00 +12°C° 0 mm 2 m/S 751 mmHg 87%
06:00 +13°C° 0 mm 2 m/S 750 mmHg 82%
07:00 +14°C° 0 mm 2 m/S 750 mmHg 76%
08:00 +16°C° 0 mm 2 m/S 750 mmHg 70%
09:00 +17°C° 0 mm 2 m/S 750 mmHg 64%
10:00 +18°C° 0 mm 2 m/S 750 mmHg 58%
11:00 +19°C° 0 mm 3 m/S 750 mmHg 58%
12:00 +19°C° 0 mm 3 m/S 749 mmHg 57%
13:00 +20°C° 0 mm 3 m/S 749 mmHg 56%
14:00 +20°C° 0.1 mm 3 m/S 749 mmHg 58%
15:00 +20°C° 0.1 mm 4 m/S 749 mmHg 59%
16:00 +20°C° 0.1 mm 4 m/S 748 mmHg 61%
17:00 +18°C° 0 mm 4 m/S 748 mmHg 67%
18:00 +17°C° 0 mm 4 m/S 748 mmHg 72%
19:00 +16°C° 0 mm 3 m/S 748 mmHg 78%
20:00 +14°C° 0 mm 3 m/S 748 mmHg 83%
21:00 +13°C° 0 mm 3 m/S 748 mmHg 87%
22:00 +11°C° 0 mm 3 m/S 748 mmHg 92%
23:00 +11°C° 0 mm 3 m/S 748 mmHg 92%

14 Juli, Dienstag

Zeit Temperatur Niederschläge Wind Luftdruck Luftfeuchtigkeit
00:00 +11°C° 0 mm 3 m/S 748 mmHg 92%
01:00 +11°C° 0 mm 3 m/S 748 mmHg 92%
02:00 +10°C° 0 mm 3 m/S 748 mmHg 92%
03:00 +10°C° 0 mm 3 m/S 748 mmHg 93%
04:00 +10°C° 0 mm 3 m/S 748 mmHg 93%
05:00 +11°C° 0 mm 3 m/S 748 mmHg 89%
06:00 +13°C° 0 mm 3 m/S 748 mmHg 84%
07:00 +15°C° 0 mm 4 m/S 748 mmHg 80%
08:00 +17°C° 0 mm 4 m/S 748 mmHg 73%
09:00 +18°C° 0 mm 4 m/S 748 mmHg 67%
10:00 +19°C° 0 mm 5 m/S 748 mmHg 60%
11:00 +20°C° 0 mm 5 m/S 747 mmHg 60%
12:00 +20°C° 0 mm 5 m/S 747 mmHg 61%
13:00 +21°C° 0 mm 5 m/S 747 mmHg 61%
14:00 +20°C° 0.2 mm 5 m/S 747 mmHg 65%
15:00 +19°C° 0.2 mm 5 m/S 747 mmHg 69%
16:00 +19°C° 0.2 mm 5 m/S 746 mmHg 73%
17:00 +18°C° 0.1 mm 4 m/S 746 mmHg 76%
18:00 +17°C° 0.1 mm 4 m/S 746 mmHg 80%
19:00 +17°C° 0.1 mm 4 m/S 746 mmHg 83%
20:00 +14°C° 0 mm 4 m/S 747 mmHg 86%
21:00 +13°C° 0 mm 4 m/S 747 mmHg 88%
22:00 +12°C° 0 mm 3 m/S 747 mmHg 91%
23:00 +12°C° 0 mm 4 m/S 747 mmHg 90%
Mehr zeigen